150  
ASUS46 KEKA 021714  
RWREKA  
EUREKA AREA WEATHER ROUNDUP  
NATIONAL WEATHER SERVICE EUREKA CA  
1000 AM PDT THU JUL 02 2020  
 
NOTE: "FAIR" INDICATES FEW OR NO CLOUDS BELOW 12,000 FEET WITH NO  
SIGNIFICANT WEATHER AND/OR S TO VISIBILITY
.  
 
SOUTHWEST OREGON...  
 
CITY SKY/WX TMP DP RH WIND PRES REMARKS
 
MEDFORD SUNNY 62 45 53 CALM 30.02F  
KLAMATH FALLS SUNNY 59 37 44 S5 30.04F  
NORTH BEND MOSUNNY 63 54 72 N10 30.06F  
ROSEBURG SUNNY 62 49 62 VRB3 30.04F  
SEXTON SUMMIT SUNNY 55 46 71 VRB3 30.04S  
BROOKINGS SUNNY 72 49 44 W6 29.93F  
 
NORTHWEST CALIFORNIA...  
 
CITY SKY/WX TMP DP RH WIND PRES REMARKS
 
CRESCENT CITY SUNNY 57 48 72 N8 29.94S HAZE  
MCKINLEYVILLE SUNNY 57 49 74 W6 29.93R  
EUREKA N/A 58 32 37 W9 29.93S  
FORTUNA N/A 57 50 77 NW9 29.93F  
WEAVERVILLE N/A 68 46 45 CALM 29.94F  
TRINITY CENTER N/A 70 41 35 CALM 29.93F  
UKIAH SUNNY 71 49 45 CALM 29.84F  
 
NORTH & CENTRAL CALIFORNIA...  
 
CITY SKY/WX TMP DP RH WIND PRES REMARKS
 
YREKA SUNNY 65 37 35 VRB5 30.02F  
MOUNT SHASTA SUNNY 64 35 34 W5 30.00F  
REDDING SUNNY 82 39 21 N10 29.81F  
RED BLUFF SUNNY 83 38 20 N7 29.82F  
CHICO MOSUNNY 73 54 49 S9 29.84S  
YUBA CITY SUNNY 73 54 51 VRB5 29.84S  
SACRAMENTO SUNNY 70 53 54 SW7 29.85S  
SANTA ROSA PTSUNNY 58 51 78 S5 29.90R  
NAPA MOSUNNY 62 51 67 VRB6 29.89S  
TRAVIS AFB NOT AVBL  
SAN FRANCISCO MOSUNNY 62 50 64 NE6 29.89R  
OAKLAND MOSUNNY 63 52 67 SW7 29.90R  
STOCKTON NOT AVBL  
SALINAS CLOUDY 63 52 67 CALM 29.93S  
MONTEREY CLOUDY 59 52 77 NW3 29.94S  
 

 
 
 
CLICK HERE TO GO TO PREVIOUS BULLETINS.

The Nexlab CA Page Main Text Page